TimePST,TemperatureF,Dew PointF,Humidity,Sea Level PressureIn,VisibilityMPH,Wind Direction,Wind SpeedMPH,Gust SpeedMPH,PrecipitationIn,Events,Conditions,WindDirDegrees,DateUTC
12:15 AM,28.4,14.0,55,30.33,10.0,Calm,Calm,-,N/A,,Clear,0,2014-01-01 08:15:00
12:35 AM,28.4,14.0,55,30.33,10.0,NNW,4.6,-,N/A,,Clear,340,2014-01-01 08:35:00
12:55 AM,26.6,14.0,59,30.33,10.0,NNE,3.5,-,N/A,,Clear,20,2014-01-01 08:55:00
1:15 AM,28.4,14.0,55,30.33,10.0,Calm,Calm,-,N/A,,Clear,0,2014-01-01 09:15:00
1:35 AM,28.4,14.0,55,30.34,10.0,NNW,4.6,-,N/A,,Clear,330,2014-01-01 09:35:00
1:55 AM,26.6,14.0,59,30.34,10.0,Calm,Calm,-,N/A,,Clear,0,2014-01-01 09:55:00
2:15 AM,28.4,14.0,55,30.33,10.0,NW,4.6,-,N/A,,Clear,320,2014-01-01 10:15:00
2:35 AM,26.6,14.0,59,30.34,10.0,North,3.5,-,N/A,,Clear,350,2014-01-01 10:35:00
2:55 AM,24.8,14.0,64,30.34,10.0,Calm,Calm,-,N/A,,Clear,0,2014-01-01 10:55:00
3:15 AM,24.8,14.0,64,30.34,10.0,Calm,Calm,-,N/A,,Clear,0,2014-01-01 11:15:00
3:35 AM,24.8,14.0,64,30.33,10.0,WNW,5.8,-,N/A,,Clear,300,2014-01-01 11:35:00
3:55 AM,24.8,14.0,64,30.33,10.0,Calm,Calm,-,N/A,,Clear,0,2014-01-01 11:55:00
4:15 AM,23.0,12.2,63,30.33,10.0,Calm,Calm,-,N/A,,Clear,0,2014-01-01 12:15:00
4:35 AM,19.4,10.4,68,30.33,10.0,Calm,Calm,-,N/A,,Clear,0,2014-01-01 12:35:00
4:55 AM,17.6,10.4,73,30.33,10.0,Calm,Calm,-,N/A,,Clear,0,2014-01-01 12:55:00
5:15 AM,15.8,10.4,79,30.33,10.0,North,3.5,-,N/A,,Clear,360,2014-01-01 13:15:00
5:35 AM,17.6,10.4,73,30.33,10.0,North,3.5,-,N/A,,Clear,10,2014-01-01 13:35:00
5:55 AM,19.4,12.2,74,30.34,10.0,Calm,Calm,-,N/A,,Clear,0,2014-01-01 13:55:00
6:15 AM,19.4,12.2,74,30.34,10.0,Calm,Calm,-,N/A,,Clear,0,2014-01-01 14:15:00
6:35 AM,17.6,10.4,73,30.34,10.0,Calm,Calm,-,N/A,,Clear,0,2014-01-01 14:35:00
6:55 AM,19.4,10.4,68,30.35,10.0,SE,3.5,-,N/A,,Clear,140,2014-01-01 14:55:00
7:15 AM,17.6,10.4,73,30.35,10.0,Calm,Calm,-,N/A,,Clear,0,2014-01-01 15:15:00
7:35 AM,14.0,8.6,79,30.36,10.0,North,4.6,-,N/A,,Clear,10,2014-01-01 15:35:00
7:55 AM,19.4,10.4,68,30.37,10.0,Calm,Calm,-,N/A,,Clear,0,2014-01-01 15:55:00
8:15 AM,23.0,12.2,63,30.38,10.0,SSE,3.5,-,N/A,,Clear,150,2014-01-01 16:15:00
8:35 AM,24.8,14.0,64,30.38,10.0,Calm,Calm,-,N/A,,Clear,0,2014-01-01 16:35:00
8:55 AM,30.2,14.0,51,30.39,10.0,Calm,Calm,-,N/A,,Clear,0,2014-01-01 16:55:00
9:15 AM,33.8,14.0,44,30.40,10.0,SE,5.8,-,N/A,,Clear,130,2014-01-01 17:15:00
9:35 AM,33.8,14.0,44,30.40,10.0,SE,5.8,-,N/A,,Clear,130,2014-01-01 17:35:00
9:55 AM,37.4,14.0,38,30.40,10.0,SE,5.8,-,N/A,,Clear,140,2014-01-01 17:55:00
10:15 AM,39.2,12.2,33,30.39,10.0,SE,4.6,-,N/A,,Clear,140,2014-01-01 18:15:00
10:35 AM,42.8,14.0,31,30.38,10.0,SE,5.8,-,N/A,,Clear,140,2014-01-01 18:35:00
10:55 AM,42.8,14.0,31,30.37,10.0,SE,5.8,-,N/A,,Clear,130,2014-01-01 18:55:00
11:15 AM,44.6,14.0,29,30.36,10.0,SE,5.8,-,N/A,,Clear,140,2014-01-01 19:15:00
11:35 AM,48.2,12.2,24,30.34,10.0,SE,3.5,-,N/A,,Clear,140,2014-01-01 19:35:00
11:55 AM,50.0,12.2,22,30.33,10.0,SE,3.5,-,N/A,,Clear,140,2014-01-01 19:55:00
12:15 PM,50.0,12.2,22,30.32,10.0,ESE,5.8,-,N/A,,Clear,120,2014-01-01 20:15:00
12:35 PM,51.8,14.0,22,30.31,10.0,ESE,4.6,-,N/A,,Clear,120,2014-01-01 20:35:00
12:55 PM,50.0,12.2,22,30.30,10.0,ESE,4.6,-,N/A,,Clear,110,2014-01-01 20:55:00
1:15 PM,51.8,10.4,19,30.30,10.0,ESE,5.8,-,N/A,,Clear,120,2014-01-01 21:15:00
1:35 PM,51.8,10.4,19,30.29,10.0,SE,5.8,-,N/A,,Clear,140,2014-01-01 21:35:00
1:55 PM,53.6,10.4,18,30.29,10.0,SE,5.8,-,N/A,,Clear,130,2014-01-01 21:55:00
2:15 PM,53.6,10.4,18,30.29,10.0,ESE,4.6,-,N/A,,Clear,120,2014-01-01 22:15:00
2:35 PM,53.6,10.4,18,30.28,10.0,ESE,6.9,-,N/A,,Clear,120,2014-01-01 22:35:00
2:55 PM,53.6,10.4,18,30.28,10.0,ESE,6.9,-,N/A,,Clear,110,2014-01-01 22:55:00
3:15 PM,51.8,12.2,21,30.28,10.0,ESE,8.1,-,N/A,,Clear,120,2014-01-01 23:15:00
3:35 PM,50.0,12.2,22,30.29,10.0,ESE,10.4,-,N/A,,Clear,110,2014-01-01 23:35:00
3:55 PM,46.4,12.2,25,30.29,10.0,ESE,8.1,-,N/A,,Clear,120,2014-01-01 23:55:00
4:15 PM,44.6,10.4,25,30.30,10.0,Calm,Calm,-,N/A,,Clear,0,2014-01-02 00:15:00
4:35 PM,42.8,10.4,27,30.30,10.0,Calm,Calm,-,N/A,,Clear,0,2014-01-02 00:35:00
4:55 PM,37.4,10.4,33,30.30,10.0,SSW,3.5,-,N/A,,Clear,200,2014-01-02 00:55:00
5:15 PM,35.6,10.4,35,30.31,10.0,Calm,Calm,-,N/A,,Clear,0,2014-01-02 01:15:00
5:35 PM,33.8,10.4,38,30.31,10.0,Calm,Calm,-,N/A,,Clear,0,2014-01-02 01:35:00
5:55 PM,32.0,10.4,41,30.31,10.0,Calm,Calm,-,N/A,,Clear,0,2014-01-02 01:55:00
6:15 PM,30.2,14.0,51,30.32,10.0,Calm,Calm,-,N/A,,Clear,0,2014-01-02 02:15:00
6:35 PM,30.2,15.8,55,30.32,10.0,Calm,Calm,-,N/A,,Clear,0,2014-01-02 02:35:00
6:55 PM,30.2,15.8,55,30.33,10.0,NW,3.5,-,N/A,,Clear,310,2014-01-02 02:55:00
7:15 PM,28.4,14.0,55,30.33,10.0,Calm,Calm,-,N/A,,Clear,0,2014-01-02 03:15:00
7:35 PM,26.6,14.0,59,30.33,10.0,Calm,Calm,-,N/A,,Clear,0,2014-01-02 03:35:00
7:55 PM,26.6,12.2,55,30.33,10.0,North,4.6,-,N/A,,Clear,360,2014-01-02 03:55:00
8:15 PM,26.6,15.8,64,30.34,10.0,Calm,Calm,-,N/A,,Clear,0,2014-01-02 04:15:00
8:35 PM,28.4,15.8,59,30.34,10.0,Calm,Calm,-,N/A,,Clear,0,2014-01-02 04:35:00
8:55 PM,26.6,17.6,69,30.34,10.0,Calm,Calm,-,N/A,,Clear,0,2014-01-02 04:55:00
9:15 PM,26.6,15.8,64,30.34,10.0,Calm,Calm,-,N/A,,Clear,0,2014-01-02 05:15:00
9:35 PM,26.6,15.8,64,30.34,10.0,Calm,Calm,-,N/A,,Clear,0,2014-01-02 05:35:00
9:55 PM,26.6,17.6,69,30.34,10.0,Calm,Calm,-,N/A,,Clear,0,2014-01-02 05:55:00
10:15 PM,26.6,15.8,64,30.34,10.0,North,3.5,-,N/A,,Clear,10,2014-01-02 06:15:00
10:35 PM,26.6,15.8,64,30.35,10.0,Calm,Calm,-,N/A,,Clear,0,2014-01-02 06:35:00
10:55 PM,26.6,17.6,69,30.34,10.0,Calm,Calm,-,N/A,,Clear,0,2014-01-02 06:55:00
11:15 PM,24.8,15.8,69,30.34,10.0,Calm,Calm,-,N/A,,Clear,0,2014-01-02 07:15:00
11:35 PM,23.0,14.0,68,30.34,10.0,Calm,Calm,-,N/A,,Clear,0,2014-01-02 07:35:00
11:55 PM,21.2,14.0,74,30.34,10.0,NNW,3.5,-,N/A,,Clear,330,2014-01-02 07:55:00